AirNav   Phillips 66 Aviation Fuel
 
 577 users online  

I93 Breckinridge County Airport
Hardinsburg, Kentucky, USA

GOING TO HARDINSBURG?


FAA INFORMATION EFFECTIVE 16 AUGUST 2018

Location

FAA Identifier: I93
Lat/Long: 37-47-05.3000N / 086-26-28.6000W
37-47.088333N / 086-26.476667W
37.7848056 / -86.4412778
(estimated)
Elevation: 732.1 ft. / 223.1 m (surveyed)
Variation: 01W (1985)
From city: 1 mile E of HARDINSBURG, KY
Time zone: UTC -5 (UTC -6 during Standard Time)
Zip code: 40143

Airport Operations

Airport use: Open to the public
Activation date: 04/1968
Control tower: no
ARTCC: INDIANAPOLIS CENTER
FSS: LOUISVILLE FLIGHT SERVICE STATION
NOTAMs facility: LOU (NOTAM-D service available)
Attendance: UNATNDD
Wind indicator: lighted
Segmented circle: no
Lights: ACTVT REIL RYS 10 & 28; PAPI RYS 10 & 28; MIRL RY 10/28 - 122.9.
Beacon: white-green (lighted land airport)
Operates sunset to sunrise.

Airport Communications

CTAF: 122.9

Nearby radio navigation aids

VOR radial/distance  VOR name  Freq  Var
MYSr236/(11.4)MYSTIC VOR108.2001W
FTKr253/23.4FORT KNOX VOR/DME109.6001W
OWBr090/34.5OWENSBORO VOR/DME108.6004W
EWOr283/37.5NEW HOPE VOR/DME110.8001E

 
NDB name  Hdg/Dist  Freq  Var  ID
GODMAN248/24.439603WGOI --. --- ..

Airport Services

Fuel available: 100LL
Parking: tiedowns
Airframe service: NONE
Powerplant service: NONE
Bottled oxygen: NONE
Bulk oxygen: NONE

Runway Information

Runway 10/28

Dimensions: 4000 x 75 ft. / 1219 x 23 m
Surface: concrete, in good condition
Weight bearing capacity: 
PCN 11 /R/C/W/U
Runway edge lights: medium intensity
RUNWAY 10  RUNWAY 28
Latitude: 37-47.127623N37-47.049373N
Longitude: 086-26.888250W086-26.063687W
Elevation: 714.2 ft.732.1 ft.
Gradient: 0.1%0.1%
Traffic pattern: leftleft
Markings: nonprecision, in good conditionnonprecision, in good condition
Visual slope indicator: 2-light PAPI on left (3.10 degrees glide path)2-light PAPI on left (3.00 degrees glide path)
Runway end identifier lights: yesyes
Touchdown point: yes, no lightsyes, no lights
Obstructions: 31 ft. trees, 1350 ft. from runway, 177 ft. left of centerline, 37:1 slope to clearnone

Airport Ownership and Management from official FAA records

Ownership: Publicly-owned
Owner: BRECKINRIDGE CO ARPT BOARD
BOX 188
HARDINSBURG, KY 40143
Phone (270) 456-6062
Manager: BRECKINRIDGE CO ARPT BOARD
799 OAK STREET
HARDINSBURG, KY 40143
Phone (270) 456-6062
AIR BOARD CHAIR - MILLER MONARCH.

Airport Operational Statistics

Aircraft based on the field: 9
Single engine airplanes: 6
Multi engine airplanes: 3
    
Aircraft operations: avg 25/week *
46% local general aviation
39% transient general aviation
15% air taxi
* for 12-month period ending 22 November 2017

Additional Remarks

FUEL AVBL 24 HRS W/CREDIT CARD

Instrument Procedures

There are no published instrument procedures at I93.

Some nearby airports with instrument procedures:

KTEL - Perry County Municipal Airport (18 nm NW)
KY8 - Hancock County Airport-Ron Lewis Field (22 nm NW)
KFTK - Godman Army Airfield (23 nm E)
KEKX - Addington Field Airport (25 nm E)
KJQD - Ohio County Airport (28 nm SW)
 
Loc | Ops | Rwys | IFR | FBO | Links
Com | Nav | Svcs | Stats | Notes


 
Area around I93 (Breckinridge County Airport)
 
Road maps at: MapQuest Bing Google
 
Aerial photo
WARNING: Photo may not be current or correct
Aerial photo of I93 (Breckinridge County Airport)
looking north.

Do you have a better or more recent aerial photo of Breckinridge County Airport that you would like to share? If so, please send us your photo.

 
Sectional chart

 
Airport distance calculator
Flying to Breckinridge County Airport? Find the distance to fly.

From to I93

Sunrise and sunset
Times for 21-Aug-2018
 Local
(UTC-5)
 Zulu
(UTC)
Morning civil twilight05:4010:40
Sunrise06:0711:07
Sunset19:3000:30
Evening civil twilight19:5800:58

Current date and time
Zulu (UTC)  21-Aug-2018 05:10:30
Local (UTC-5)  21-Aug-2018 00:10:30
 
METAR
KKY8 
22nm NW 
210455Z AUTO 20011G16KT 10SM FEW120 23/23 A2983 RMK A01
KFTK 
23nm E 
210456Z AUTO 16013KT 10SM SCT150 SCT220 25/23 A2984 RMK AO2 LTG DSNT S SLP100 T02480226 402990216
KEKX 
28nm E 
210455Z AUTO 18010G15KT 10SM CLR 24/23 A2986 RMK AO2 LTG DSNT S AND SW T02400232
KOWB 
35nm W 
210456Z AUTO 21010KT 10SM SCT012 SCT020 BKN100 23/22 A2984 RMK AO2 SLP110 T02280217 TSNO
KHNB 
37nm NW 
210456Z AUTO 21008KT 10SM FEW035 22/21 A2983 RMK AO2 RAE18 SLP095 P0000 T02220206 402940217 TSNO
KSDF 
41nm NE 
210456Z 15011KT 10SM FEW045 FEW055 OVC250 26/23 A2982 RMK AO2 SLP092 T02560228 403060228
KFRH 
44nm N 
210455Z AUTO 23007G15KT 10SM OVC014 23/18 A2984 RMK AO1
TAF
KFTK 
23nm E 
210329Z 2103/2207 18009KT 9999 SCT020 QNH2982INS BECMG 2106/2107 23012KT 8000 -SHRA BKN020 QNH2982INS BECMG 2120/2121 24009KT 9999 NSW BKN030 QNH2986INS TX28/2120Z TN21/2111Z
NOTAMs
Click for the latest NOTAMs
NOTAMs are issued by the DoD/FAA and will open in a separate window not controlled by AirNav.

 

 
 

FBO, Fuel Providers, and Aircraft Ground Support

  
 Business Name 
 
 Contact 
 
 Services / Description 
 
Fuel Prices
 
Comments
  
Breckinridge County Airport 270-617-1111
[email]
Airport management, Aviation fuel, Aircraft parking (ramp or tiedown), Passenger terminal and lounge, Pilots lounge / snooze room, Computerized weather, ...

More info about Breckinridge County Airport
Shell
100LL
SS $4.45 
 Updated 06-Aug-2018
 
   2 read write
SS=Self service
Update Fuel Prices
 

Would you like to see your business listed on this page?

 If your business provides an interesting product or service to pilots, flight crews, aircraft, or users of the Breckinridge County Airport, you should consider listing it here.  To start the listing process, click on the button below
 
Add a business
 

Other Pages about Breckinridge County Airport

Update a link
 
Copyright © AirNav, LLC. All rights reserved. Privacy Policy  Contact